Weather History for Ord, NE

Change the Weather History Date:

Saturday, April 21, 2012

  Actual Average Record
Temperature  
Mean Temperature 55 °F 50 °F  
Max Temperature 70 °F 63 °F 80 °F (2007)
Min Temperature 40 °F 38 °F 27 °F (2013)
Degree Days  
Heating Degree Days 10    
Month to date heating degree days 308  
Cooling Degree Days 0    
Month to date cooling degree days 2  
Year to date cooling degree days 17  
Growing Degree Days 4 (Base 50)    
Moisture  
Dew Point 36 °F    
Average Humidity 57    
Maximum Humidity 85    
Minimum Humidity 28    
Precipitation  
Precipitation 0.00 in 0.10 in 1.39 in (1984)
Month to date precipitation 3.14 1.65  
Year to date precipitation 5.24 3.91  
Sea Level Pressure  
Sea Level Pressure 30.00 in    
Wind  
Wind Speed 13 mph (NW)    
Max Wind Speed 28 mph    
Max Gust Speed 33 mph    
Visibility 10 miles    
Events      
T = Trace of Precipitation, MM = Missing Value Source: NWS Daily Summary

Daily Weather History Graph

Daily Weather History Graph

Search for Another Location

Airport:

Trip Planner

Search our weather history database for the weather conditions in past years. The results will help you decide how hot, cold, wet, or windy it might be!

Date:

Astronomy

Apr. 21, 2012 Rise Set
Actual Time 6:45 AM CDT 8:23 PM CDT
Civil Twilight 6:16 AM CDT 8:52 PM CDT
Nautical Twilight 5:41 AM CDT 9:28 PM CDT
Astronomical Twilight 5:03 AM CDT 10:06 PM CDT
Moon 6:41 AM CDT (4/21) 9:07 PM CDT (4/21)
Length of Visible Light 14h 36m
Length of Day
13h 37m
New Moon, 0% of the Moon is Illuminated
Apr 21
New Moon
Apr 29
First Quarter
May 5
Full
May 12
Last Quarter
May 20
New

Hourly Weather History & Observations

Time (CDT) Temp. Windchill Dew Point Humidity Pressure Visibility Wind Dir Wind Speed Gust Speed Precip Events Conditions
12:53 AM 48.0 °F - 35.1 °F 61% 30.00 in 10.0 mi South 10.4 mph - N/A   Clear
1:53 AM 46.9 °F - 34.0 °F 61% 29.99 in 10.0 mi SSE 6.9 mph - N/A   Overcast
2:53 AM 46.0 °F 39.9 °F 34.0 °F 63% 29.96 in 10.0 mi South 13.8 mph - N/A   Clear
3:53 AM 45.0 °F 39.7 °F 34.0 °F 65% 29.94 in 10.0 mi South 10.4 mph - N/A   Clear
4:53 AM 44.1 °F 39.5 °F 34.0 °F 68% 29.94 in 10.0 mi South 8.1 mph - N/A   Scattered Clouds
5:53 AM 45.0 °F 41.8 °F 36.0 °F 71% 29.94 in 10.0 mi South 5.8 mph - N/A   Overcast
6:53 AM 39.9 °F 37.8 °F 36.0 °F 86% 29.99 in 10.0 mi WNW 3.5 mph - N/A   Clear
7:53 AM 45.0 °F 41.8 °F 37.9 °F 76% 29.95 in 10.0 mi South 5.8 mph - N/A   Scattered Clouds
8:53 AM 46.0 °F 43.9 °F 39.0 °F 76% 29.97 in 10.0 mi SSW 4.6 mph - N/A   Partly Cloudy
9:53 AM 52.0 °F - 41.0 °F 66% 29.99 in 10.0 mi West 5.8 mph - N/A   Partly Cloudy
10:53 AM 62.1 °F - 45.0 °F 53% 29.96 in 10.0 mi NW 9.2 mph - N/A   Clear
11:53 AM 66.9 °F - 45.0 °F 45% 29.95 in 10.0 mi NNW 24.2 mph 29.9 mph N/A   Clear
12:53 PM 68.0 °F - 41.0 °F 37% 29.96 in 10.0 mi North 19.6 mph 29.9 mph N/A   Partly Cloudy
1:53 PM 69.1 °F - 37.0 °F 31% 29.97 in 10.0 mi North 19.6 mph 26.5 mph N/A   Scattered Clouds
2:53 PM 66.0 °F - 35.1 °F 32% 29.99 in 10.0 mi North 23.0 mph 26.5 mph N/A   Scattered Clouds
3:53 PM 69.1 °F - 37.0 °F 31% 29.99 in 10.0 mi North 17.3 mph 32.2 mph N/A   Scattered Clouds
4:53 PM 68.0 °F - 35.1 °F 30% 29.99 in 10.0 mi North 21.9 mph 29.9 mph N/A   Partly Cloudy
5:53 PM 66.9 °F - 35.1 °F 31% 30.00 in 10.0 mi NNW 18.4 mph 25.3 mph N/A   Partly Cloudy
6:53 PM 64.9 °F - 30.9 °F 28% 30.02 in 10.0 mi NNW 20.7 mph 29.9 mph N/A   Clear
7:53 PM 62.1 °F - 32.0 °F 32% 30.03 in 10.0 mi NNW 17.3 mph 26.5 mph N/A   Clear
8:53 PM 55.9 °F - 32.0 °F 40% 30.06 in 10.0 mi NNW 10.4 mph - N/A   Clear
9:53 PM 52.0 °F - 33.1 °F 49% 30.09 in 10.0 mi NNW 10.4 mph - N/A   Clear
10:53 PM 53.1 °F - 28.9 °F 40% 30.12 in 10.0 mi NNW 13.8 mph - N/A   Clear
11:53 PM 50.0 °F - 33.1 °F 52% 30.14 in 10.0 mi NNW 9.2 mph 20.7 mph N/A   Clear